小惑星2011 KE

2011 KE

English version
Home page
Updated on June 11, 2011

---------------------------------------------------------------------

・ プロフィール

発見日 2011年5月21日
発見光度 17.3等
発見者 La Sagra

・ 軌道要素

The following orbital elements are taken from MPEC 2011-L13:

Epoch 2011 Aug. 27.0 TT = JDT 2455800.5                 MPC
M  16.25608              (2000.0)            P               Q
n   0.29838817     Peri.  188.47427     +0.83385132     -0.55027956
a   2.2179324      Node   205.06341     +0.51225733     +0.80073101
e   0.9547534      Incl.    5.88155     +0.20563173     +0.23669020
P   3.30           H   19.8           G   0.15           U   7
From 176 observations 2011 May 21-30, mean residual 0".42.

・ 星図

・ 光度変化

        H = 19.7  G = 0.15

---------------------------------------------------------------------

軌道要素はMPCのEphemerides and Orbital Elementsに掲載されたものです。
星図はステラナビゲータ Ver.8 (アストロアーツ) で作成したものです。
光度グラフはComet for Windowsで作成したものです。

---------------------------------------------------------------------

Copyright(C) Seiichi Yoshida (comet@aerith.net). All rights reserved.